Time,TemperatureF,DewpointF,PressureIn,WindDirection,WindDirectionDegrees,WindSpeedMPH,WindSpeedGustMPH,Humidity,HourlyPrecipIn,Conditions,Clouds,dailyrainin,SoftwareType,DateUTC
2013-03-23 00:00:00,34.2,10.6,29.76,NW,304,6.0,19.0,37,0.00,,,0.00,Wunderground v.1.15,2013-03-23 04:00:00,
2013-03-23 00:10:00,34.1,10.5,29.75,WNW,291,5.0,5.0,37,0.00,,,0.00,Wunderground v.1.15,2013-03-23 04:10:00,
2013-03-23 00:20:00,34.1,10.5,29.75,NW,315,4.0,19.0,37,0.00,,,0.00,Wunderground v.1.15,2013-03-23 04:20:00,
2013-03-23 00:30:00,34.0,11.6,29.74,NW,321,5.0,19.0,39,0.00,,,0.00,Wunderground v.1.15,2013-03-23 04:30:00,
2013-03-23 00:40:00,33.9,11.5,29.74,NW,320,5.0,5.0,39,0.00,,,0.00,Wunderground v.1.15,2013-03-23 04:40:00,
2013-03-23 00:50:00,33.8,11.4,29.74,WNW,294,4.0,4.0,39,0.00,,,0.00,Wunderground v.1.15,2013-03-23 04:50:00,
2013-03-23 01:00:00,33.9,11.5,29.74,WNW,286,6.0,19.0,39,0.00,,,0.00,Wunderground v.1.15,2013-03-23 05:00:00,
2013-03-23 01:10:00,33.8,11.4,29.74,West,274,6.0,19.0,39,0.00,,,0.00,Wunderground v.1.15,2013-03-23 05:10:00,
2013-03-23 01:20:00,33.9,11.5,29.74,WNW,286,7.0,19.0,39,0.00,,,0.00,Wunderground v.1.15,2013-03-23 05:20:00,
2013-03-23 01:30:00,34.1,11.1,29.74,WNW,291,8.0,8.0,38,0.00,,,0.00,Wunderground v.1.15,2013-03-23 05:30:00,
2013-03-23 01:40:00,34.1,11.7,29.74,WNW,283,8.0,8.0,39,0.00,,,0.00,Wunderground v.1.15,2013-03-23 05:40:00,
2013-03-23 01:50:00,34.0,12.2,29.74,WNW,288,6.0,6.0,40,0.00,,,0.00,Wunderground v.1.15,2013-03-23 05:50:00,
2013-03-23 02:00:00,33.9,12.1,29.73,WNW,296,5.0,19.0,40,0.00,,,0.00,Wunderground v.1.15,2013-03-23 06:00:00,
2013-03-23 02:10:00,34.0,12.7,29.73,WNW,286,6.0,19.0,41,0.00,,,0.00,Wunderground v.1.15,2013-03-23 06:10:00,
2013-03-23 02:20:00,34.1,13.4,29.73,WNW,303,6.0,19.0,42,0.00,,,0.00,Wunderground v.1.15,2013-03-23 06:20:00,
2013-03-23 02:30:00,34.1,14.4,29.73,NW,309,6.0,19.0,44,0.00,,,0.00,Wunderground v.1.15,2013-03-23 06:30:00,
2013-03-23 02:40:00,34.0,14.9,29.73,NW,319,6.0,19.0,45,0.00,,,0.00,Wunderground v.1.15,2013-03-23 06:40:00,
2013-03-23 02:50:00,34.1,15.5,29.73,WNW,298,6.0,6.0,46,0.00,,,0.00,Wunderground v.1.15,2013-03-23 06:50:00,
2013-03-23 03:00:00,34.2,16.5,29.73,WNW,300,6.0,19.0,48,0.00,,,0.00,Wunderground v.1.15,2013-03-23 07:00:00,
2013-03-23 03:10:00,34.2,17.5,29.72,NW,312,6.0,19.0,50,0.00,,,0.00,Wunderground v.1.15,2013-03-23 07:10:00,
2013-03-23 03:20:00,34.1,17.8,29.71,NW,320,7.0,7.0,51,0.00,,,0.00,Wunderground v.1.15,2013-03-23 07:20:00,
2013-03-23 03:30:00,33.9,17.2,29.71,NNW,344,6.0,19.0,50,0.00,,,0.00,Wunderground v.1.15,2013-03-23 07:30:00,
2013-03-23 03:40:00,33.7,17.9,29.71,NW,322,7.0,19.0,52,0.00,,,0.00,Wunderground v.1.15,2013-03-23 07:40:00,
2013-03-23 03:50:00,33.7,18.4,29.70,NW,313,7.0,7.0,53,0.00,,,0.00,Wunderground v.1.15,2013-03-23 07:50:00,
2013-03-23 04:00:00,33.6,18.7,29.70,NW,317,6.0,19.0,54,0.00,,,0.00,Wunderground v.1.15,2013-03-23 08:00:00,
2013-03-23 04:10:00,33.5,19.5,29.71,NW,315,6.0,6.0,56,0.00,,,0.00,Wunderground v.1.15,2013-03-23 08:10:00,
2013-03-23 04:19:00,33.7,20.9,29.70,NW,315,4.0,19.0,59,0.00,,,0.00,Wunderground v.1.15,2013-03-23 08:19:00,
2013-03-23 04:30:00,33.7,21.7,29.70,NW,312,6.0,6.0,61,0.00,,,0.00,Wunderground v.1.15,2013-03-23 08:30:00,
2013-03-23 04:39:00,33.5,21.9,29.70,NW,315,4.0,4.0,62,0.00,,,0.00,Wunderground v.1.15,2013-03-23 08:39:00,
2013-03-23 04:50:00,33.1,22.2,29.70,NW,315,2.0,2.0,64,0.00,,,0.00,Wunderground v.1.15,2013-03-23 08:50:00,
2013-03-23 05:00:00,32.7,21.5,29.70,NW,315,0.0,19.0,63,0.00,,,0.00,Wunderground v.1.15,2013-03-23 09:00:00,
2013-03-23 05:10:00,32.4,20.8,29.70,NW,315,2.0,2.0,62,0.00,,,0.00,Wunderground v.1.15,2013-03-23 09:10:00,
2013-03-23 05:20:00,32.1,20.2,29.69,NW,315,1.0,19.0,61,0.00,,,0.00,Wunderground v.1.15,2013-03-23 09:20:00,
2013-03-23 05:30:00,31.8,20.3,29.70,NW,315,1.0,1.0,62,0.00,,,0.00,Wunderground v.1.15,2013-03-23 09:30:00,
2013-03-23 05:40:00,31.6,20.4,29.69,NW,315,2.0,19.0,63,0.00,,,0.00,Wunderground v.1.15,2013-03-23 09:40:00,
2013-03-23 05:50:00,31.5,20.7,29.69,NW,315,2.0,2.0,64,0.00,,,0.00,Wunderground v.1.15,2013-03-23 09:50:00,
2013-03-23 06:00:00,31.9,20.7,29.70,NW,315,3.0,19.0,63,0.00,,,0.00,Wunderground v.1.15,2013-03-23 10:00:00,
2013-03-23 06:10:00,32.2,21.7,29.69,NW,315,3.0,19.0,65,0.00,,,0.00,Wunderground v.1.15,2013-03-23 10:10:00,
2013-03-23 06:19:00,32.6,22.5,29.70,NW,319,5.0,19.0,66,0.00,,,0.00,Wunderground v.1.15,2013-03-23 10:19:00,
2013-03-23 06:30:00,32.6,21.8,29.70,NW,319,4.0,19.0,64,0.00,,,0.00,Wunderground v.1.15,2013-03-23 10:30:00,
2013-03-23 06:40:00,32.7,22.2,29.70,NW,318,4.0,4.0,65,0.00,,,0.00,Wunderground v.1.15,2013-03-23 10:40:00,
2013-03-23 06:49:00,32.8,22.0,29.70,NW,318,4.0,19.0,64,0.00,,,0.00,Wunderground v.1.15,2013-03-23 10:49:00,
2013-03-23 07:00:00,33.0,22.5,29.70,NW,318,3.0,3.0,65,0.00,,,0.00,Wunderground v.1.15,2013-03-23 11:00:00,
2013-03-23 07:10:00,32.9,22.0,29.70,NW,318,1.0,19.0,64,0.00,,,0.00,Wunderground v.1.15,2013-03-23 11:10:00,
2013-03-23 07:20:00,32.8,21.6,29.71,NW,318,0.0,19.0,63,0.00,,,0.00,Wunderground v.1.15,2013-03-23 11:20:00,
2013-03-23 07:30:00,32.9,23.5,29.72,NW,318,0.0,19.0,68,0.00,,,0.00,Wunderground v.1.15,2013-03-23 11:30:00,
2013-03-23 07:40:00,33.1,22.6,29.71,NW,318,0.0,19.0,65,0.00,,,0.00,Wunderground v.1.15,2013-03-23 11:40:00,
2013-03-23 07:49:00,33.3,24.2,29.71,NW,318,0.0,19.0,69,0.00,,,0.00,Wunderground v.1.15,2013-03-23 11:49:00,
2013-03-23 07:59:00,33.8,25.4,29.71,NW,317,1.0,19.0,71,0.00,,,0.00,Wunderground v.1.15,2013-03-23 11:59:00,
2013-03-23 08:10:00,33.9,26.8,29.71,NW,317,2.0,19.0,75,0.00,,,0.00,Wunderground v.1.15,2013-03-23 12:10:00,
2013-03-23 08:20:00,34.3,27.8,29.73,WNW,294,3.0,19.0,77,0.00,,,0.00,Wunderground v.1.15,2013-03-23 12:20:00,
2013-03-23 08:30:00,34.7,26.6,29.73,WNW,292,3.0,3.0,72,0.00,,,0.00,Wunderground v.1.15,2013-03-23 12:30:00,
2013-03-23 08:40:00,34.7,27.6,29.73,WNW,292,2.0,2.0,75,0.00,,,0.00,Wunderground v.1.15,2013-03-23 12:40:00,
2013-03-23 08:50:00,34.9,28.1,29.73,WNW,292,0.0,19.0,76,0.00,,,0.00,Wunderground v.1.15,2013-03-23 12:50:00,
2013-03-23 09:00:00,35.2,28.1,29.73,WNW,292,0.0,19.0,75,0.00,,,0.00,Wunderground v.1.15,2013-03-23 13:00:00,
2013-03-23 09:20:00,35.7,28.6,29.73,WNW,292,0.0,0.0,75,0.00,,,0.00,Wunderground v.1.15,2013-03-23 13:20:00,
2013-03-23 09:30:00,35.7,28.9,29.73,WNW,292,0.0,0.0,76,0.00,,,0.00,Wunderground v.1.15,2013-03-23 13:30:00,
2013-03-23 09:40:00,35.7,29.2,29.73,SSW,211,0.0,0.0,77,0.00,,,0.00,Wunderground v.1.15,2013-03-23 13:40:00,
2013-03-23 09:50:00,35.8,29.0,29.73,SSW,211,0.0,0.0,76,0.00,,,0.00,Wunderground v.1.15,2013-03-23 13:50:00,
2013-03-23 10:00:00,36.0,28.8,29.73,SSW,211,0.0,0.0,75,0.00,,,0.00,Wunderground v.1.15,2013-03-23 14:00:00,
2013-03-23 10:10:00,36.1,28.9,29.73,SSW,211,0.0,4.0,75,0.00,,,0.00,Wunderground v.1.15,2013-03-23 14:10:00,
2013-03-23 10:20:00,36.2,28.7,29.73,SSW,211,0.0,4.0,74,0.00,,,0.00,Wunderground v.1.15,2013-03-23 14:20:00,
2013-03-23 10:30:00,36.4,28.9,29.73,SSW,211,1.0,1.0,74,0.00,,,0.00,Wunderground v.1.15,2013-03-23 14:30:00,
2013-03-23 10:40:00,36.6,28.8,29.73,SSW,211,0.0,4.0,73,0.00,,,0.00,Wunderground v.1.15,2013-03-23 14:40:00,
2013-03-23 10:50:00,37.1,29.6,29.72,SSW,211,1.0,4.0,74,0.00,,,0.00,Wunderground v.1.15,2013-03-23 14:50:00,
2013-03-23 11:00:00,37.7,29.1,29.72,SSW,211,1.0,1.0,71,0.00,,,0.00,Wunderground v.1.15,2013-03-23 15:00:00,
2013-03-23 11:10:00,38.0,29.4,29.73,SSW,211,1.0,4.0,71,0.00,,,0.00,Wunderground v.1.15,2013-03-23 15:10:00,
2013-03-23 11:20:00,38.4,29.5,29.72,SSW,200,4.0,5.0,70,0.00,,,0.00,Wunderground v.1.15,2013-03-23 15:20:00,
2013-03-23 11:30:00,38.8,29.5,29.71,SSW,192,6.0,6.0,69,0.00,,,0.00,Wunderground v.1.15,2013-03-23 15:30:00,
2013-03-23 11:40:00,39.3,28.1,29.72,SSW,194,5.0,5.0,64,0.00,,,0.00,Wunderground v.1.15,2013-03-23 15:40:00,
2013-03-23 11:50:00,38.9,27.8,29.72,South,184,4.0,7.0,64,0.00,,,0.00,Wunderground v.1.15,2013-03-23 15:50:00,
2013-03-23 12:00:00,38.7,27.2,29.71,South,182,5.0,5.0,63,0.00,,,0.00,Wunderground v.1.15,2013-03-23 16:00:00,
2013-03-23 12:09:00,39.3,27.0,29.71,SSW,205,6.0,6.0,61,0.00,,,0.00,Wunderground v.1.15,2013-03-23 16:09:00,
2013-03-23 12:20:00,38.8,26.9,29.71,SSW,195,6.0,6.0,62,0.00,,,0.00,Wunderground v.1.15,2013-03-23 16:20:00,
2013-03-23 12:30:00,38.9,28.5,29.70,SW,236,5.0,5.0,66,0.00,,,0.00,Wunderground v.1.15,2013-03-23 16:30:00,
2013-03-23 12:40:00,38.8,27.7,29.70,WSW,242,6.0,6.0,64,0.00,,,0.00,Wunderground v.1.15,2013-03-23 16:40:00,
2013-03-23 12:50:00,38.9,27.4,29.70,SW,223,6.0,6.0,63,0.00,,,0.00,Wunderground v.1.15,2013-03-23 16:50:00,
2013-03-23 13:00:00,39.1,27.2,29.69,SSW,212,6.0,6.0,62,0.00,,,0.00,Wunderground v.1.15,2013-03-23 17:00:00,
2013-03-23 13:10:00,40.0,28.8,29.69,SW,228,5.0,5.0,64,0.00,,,0.00,Wunderground v.1.15,2013-03-23 17:10:00,
2013-03-23 13:20:00,40.8,29.9,29.69,WSW,250,4.0,6.0,65,0.00,,,0.00,Wunderground v.1.15,2013-03-23 17:20:00,
2013-03-23 13:30:00,40.3,27.9,29.69,SW,215,4.0,4.0,61,0.00,,,0.00,Wunderground v.1.15,2013-03-23 17:30:00,
2013-03-23 13:40:00,40.7,27.9,29.69,SW,227,4.0,6.0,60,0.00,,,0.00,Wunderground v.1.15,2013-03-23 17:40:00,
2013-03-23 13:50:00,41.5,29.8,29.69,SW,227,3.0,3.0,63,0.00,,,0.00,Wunderground v.1.15,2013-03-23 17:50:00,
2013-03-23 14:00:00,42.9,31.9,29.68,SW,231,2.0,4.0,65,0.00,,,0.00,Wunderground v.1.15,2013-03-23 18:00:00,
2013-03-23 14:10:00,43.2,31.1,29.68,WSW,252,4.0,4.0,62,0.00,,,0.00,Wunderground v.1.15,2013-03-23 18:10:00,
2013-03-23 14:20:00,43.7,31.9,29.67,West,277,3.0,4.0,63,0.00,,,0.00,Wunderground v.1.15,2013-03-23 18:20:00,
2013-03-23 14:30:00,44.3,33.3,29.67,WSW,243,4.0,4.0,65,0.00,,,0.00,Wunderground v.1.15,2013-03-23 18:30:00,
2013-03-23 14:40:00,43.6,32.2,29.67,SW,222,6.0,6.0,64,0.00,,,0.00,Wunderground v.1.15,2013-03-23 18:40:00,
2013-03-23 14:50:00,44.1,34.2,29.66,SW,220,5.0,5.0,68,0.00,,,0.00,Wunderground v.1.15,2013-03-23 18:50:00,
2013-03-23 15:00:00,44.8,34.9,29.66,NW,315,2.0,5.0,68,0.00,,,0.00,Wunderground v.1.15,2013-03-23 19:00:00,
2013-03-23 15:10:00,44.9,36.4,29.65,NW,317,4.0,4.0,72,0.00,,,0.00,Wunderground v.1.15,2013-03-23 19:10:00,
2013-03-23 15:20:00,45.5,37.0,29.65,West,277,3.0,7.0,72,0.00,,,0.00,Wunderground v.1.15,2013-03-23 19:20:00,
2013-03-23 15:30:00,45.2,36.4,29.65,West,273,5.0,5.0,71,0.00,,,0.00,Wunderground v.1.15,2013-03-23 19:30:00,
2013-03-23 15:40:00,45.0,35.4,29.65,NW,311,3.0,3.0,69,0.00,,,0.00,Wunderground v.1.15,2013-03-23 19:40:00,
2013-03-23 15:50:00,45.0,36.2,29.65,NW,309,2.0,4.0,71,0.00,,,0.00,Wunderground v.1.15,2013-03-23 19:50:00,
2013-03-23 16:00:00,45.3,36.4,29.65,WNW,291,4.0,5.0,71,0.00,,,0.00,Wunderground v.1.15,2013-03-23 20:00:00,
2013-03-23 16:10:00,45.9,36.7,29.64,NW,317,4.0,4.0,70,0.00,,,0.00,Wunderground v.1.15,2013-03-23 20:10:00,
2013-03-23 16:20:00,46.2,36.6,29.64,NW,321,5.0,5.0,69,0.00,,,0.00,Wunderground v.1.15,2013-03-23 20:20:00,
2013-03-23 16:30:00,46.2,37.0,29.63,West,273,6.0,7.0,70,0.00,,,0.00,Wunderground v.1.15,2013-03-23 20:30:00,
2013-03-23 16:40:00,46.6,37.3,29.63,West,275,4.0,4.0,70,0.00,,,0.00,Wunderground v.1.15,2013-03-23 20:40:00,
2013-03-23 16:50:00,46.7,37.1,29.63,WNW,288,3.0,5.0,69,0.00,,,0.00,Wunderground v.1.15,2013-03-23 20:50:00,
2013-03-23 17:00:00,46.7,36.7,29.63,West,275,5.0,5.0,68,0.00,,,0.00,Wunderground v.1.15,2013-03-23 21:00:00,
2013-03-23 17:10:00,46.5,36.5,29.63,West,280,5.0,5.0,68,0.00,,,0.00,Wunderground v.1.15,2013-03-23 21:10:00,
2013-03-23 17:20:00,46.8,36.0,29.63,West,281,3.0,3.0,66,0.00,,,0.00,Wunderground v.1.15,2013-03-23 21:20:00,
2013-03-23 17:30:00,46.4,36.8,29.63,North,351,2.0,6.0,69,0.00,,,0.00,Wunderground v.1.15,2013-03-23 21:30:00,
2013-03-23 17:50:00,45.7,36.8,29.62,NNE,23,4.0,4.0,71,0.00,,,0.00,Wunderground v.1.15,2013-03-23 21:50:00,
2013-03-23 18:00:00,45.4,36.5,29.62,NE,38,6.0,7.0,71,0.00,,,0.00,Wunderground v.1.15,2013-03-23 22:00:00,
2013-03-23 18:10:00,45.2,36.7,29.62,North,5,6.0,6.0,72,0.00,,,0.00,Wunderground v.1.15,2013-03-23 22:10:00,
2013-03-23 18:20:00,45.4,36.9,29.62,NNW,343,4.0,6.0,72,0.00,,,0.00,Wunderground v.1.15,2013-03-23 22:20:00,
2013-03-23 18:30:00,45.3,36.8,29.62,North,355,4.0,4.0,72,0.00,,,0.00,Wunderground v.1.15,2013-03-23 22:30:00,
2013-03-23 18:40:00,45.0,36.5,29.62,North,355,3.0,3.0,72,0.00,,,0.00,Wunderground v.1.15,2013-03-23 22:40:00,
2013-03-23 18:50:00,44.7,36.6,29.62,NNW,338,3.0,4.0,73,0.00,,,0.00,Wunderground v.1.15,2013-03-23 22:50:00,
2013-03-23 19:00:00,44.1,36.0,29.62,NNW,338,3.0,4.0,73,0.00,,,0.00,Wunderground v.1.15,2013-03-23 23:00:00,
2013-03-23 19:10:00,43.8,36.0,29.63,NW,314,4.0,4.0,74,0.00,,,0.00,Wunderground v.1.15,2013-03-23 23:10:00,
2013-03-23 19:19:00,43.6,35.9,29.63,NW,313,4.0,4.0,74,0.00,,,0.00,Wunderground v.1.15,2013-03-23 23:19:00,
2013-03-23 19:30:00,43.2,35.8,29.64,NW,313,4.0,4.0,75,0.00,,,0.00,Wunderground v.1.15,2013-03-23 23:30:00,
2013-03-23 19:40:00,42.7,35.7,29.63,NW,313,2.0,2.0,76,0.00,,,0.00,Wunderground v.1.15,2013-03-23 23:40:00,
2013-03-23 19:50:00,42.1,35.4,29.63,NW,313,0.0,4.0,77,0.00,,,0.00,Wunderground v.1.15,2013-03-23 23:50:00,
2013-03-23 20:00:00,41.4,35.4,29.63,NW,313,0.0,4.0,79,0.00,,,0.00,Wunderground v.1.15,2013-03-24 00:00:00,
2013-03-23 20:10:00,41.1,35.1,29.64,NW,313,0.0,4.0,79,0.00,,,0.00,Wunderground v.1.15,2013-03-24 00:10:00,
2013-03-23 20:20:00,40.0,34.3,29.64,NW,313,0.0,4.0,80,0.00,,,0.00,Wunderground v.1.15,2013-03-24 00:20:00,
2013-03-23 20:30:00,39.2,34.2,29.64,NW,313,0.0,4.0,82,0.00,,,0.00,Wunderground v.1.15,2013-03-24 00:30:00,
2013-03-23 20:40:00,38.8,34.4,29.64,NW,313,0.0,4.0,84,0.00,,,0.00,Wunderground v.1.15,2013-03-24 00:40:00,
2013-03-23 20:50:00,39.1,34.7,29.65,NW,313,0.0,4.0,84,0.00,,,0.00,Wunderground v.1.15,2013-03-24 00:50:00,
2013-03-23 21:00:00,39.1,34.7,29.65,NW,313,0.0,4.0,84,0.00,,,0.00,Wunderground v.1.15,2013-03-24 01:00:00,
2013-03-23 21:10:00,39.0,34.3,29.65,NW,313,0.0,4.0,83,0.00,,,0.00,Wunderground v.1.15,2013-03-24 01:10:00,
2013-03-23 21:20:00,38.4,33.7,29.65,NW,313,0.0,4.0,83,0.00,,,0.00,Wunderground v.1.15,2013-03-24 01:20:00,
2013-03-23 21:30:00,37.3,33.5,29.66,NW,313,0.0,4.0,86,0.00,,,0.00,Wunderground v.1.15,2013-03-24 01:30:00,
2013-03-23 21:40:00,37.4,34.2,29.65,NW,313,0.0,4.0,88,0.00,,,0.00,Wunderground v.1.15,2013-03-24 01:40:00,
2013-03-23 21:50:00,37.7,34.2,29.66,NW,313,0.0,4.0,87,0.00,,,0.00,Wunderground v.1.15,2013-03-24 01:50:00,
2013-03-23 22:00:00,37.7,34.5,29.65,NW,313,0.0,4.0,88,0.00,,,0.00,Wunderground v.1.15,2013-03-24 02:00:00,
2013-03-23 22:10:00,38.2,34.7,29.65,NW,313,0.0,4.0,87,0.00,,,0.00,Wunderground v.1.15,2013-03-24 02:10:00,
2013-03-23 22:20:00,38.3,34.8,29.65,NW,313,0.0,4.0,87,0.00,,,0.00,Wunderground v.1.15,2013-03-24 02:20:00,
2013-03-23 22:30:00,38.0,33.9,29.64,NW,313,0.0,4.0,85,0.00,,,0.00,Wunderground v.1.15,2013-03-24 02:30:00,
2013-03-23 22:40:00,37.0,33.2,29.64,NW,313,0.0,4.0,86,0.00,,,0.00,Wunderground v.1.15,2013-03-24 02:40:00,
2013-03-23 22:50:00,36.7,33.2,29.63,NW,313,0.0,4.0,87,0.00,,,0.00,Wunderground v.1.15,2013-03-24 02:50:00,
2013-03-23 23:00:00,36.2,33.3,29.62,NW,313,0.0,4.0,89,0.00,,,0.00,Wunderground v.1.15,2013-03-24 03:00:00,
2013-03-23 23:10:00,36.3,33.6,29.64,NW,313,0.0,4.0,90,0.00,,,0.00,Wunderground v.1.15,2013-03-24 03:10:00,
2013-03-23 23:20:00,36.4,33.7,29.61,NW,313,0.0,4.0,90,0.00,,,0.00,Wunderground v.1.15,2013-03-24 03:20:00,
2013-03-23 23:30:00,36.0,32.8,29.60,NW,313,0.0,4.0,88,0.00,,,0.00,Wunderground v.1.15,2013-03-24 03:30:00,
2013-03-23 23:40:00,35.7,33.1,29.60,NW,313,1.0,4.0,90,0.00,,,0.00,Wunderground v.1.15,2013-03-24 03:40:00,
2013-03-23 23:50:00,35.9,33.3,29.61,NW,313,1.0,1.0,90,0.00,,,0.00,Wunderground v.1.15,2013-03-24 03:50:00,